Weather History for Eureka, NV

Change the Weather History Date:

Saturday, March 30, 2013

  Actual Average Record
Temperature  
Mean Temperature 51 °F 40 °F  
Max Temperature 69 °F 54 °F 73 °F (1968)
Min Temperature 32 °F 25 °F 11 °F (1985)
Degree Days  
Heating Degree Days 14 25  
Month to date heating degree days 701 848  
Since 1 July heating degree days 5789 6133  
Cooling Degree Days 0 0  
Month to date cooling degree days 0 0  
Year to date cooling degree days 0 0  
Moisture  
Dew Point 26 °F    
Average Humidity 44    
Maximum Humidity 72    
Minimum Humidity 15    
Precipitation  
Precipitation 0.00 in 0.03 in 0.35 in (2014)
Month to date precipitation 0.08 0.89  
Year to date precipitation 1.99 2.49  
Sea Level Pressure  
Sea Level Pressure 30.05 in    
Wind  
Wind Speed 5 mph (South)    
Max Wind Speed 16 mph    
Max Gust Speed 20 mph    
T = Trace of Precipitation, MM = Missing Value Source: NWS Daily Summary

Daily Weather History Graph

Daily Weather History Graph

Search for Another Location

Airport:

Trip Planner

Search our weather history database for the weather conditions in past years. The results will help you decide how hot, cold, wet, or windy it might be!

Date:

Astronomy

Mar. 30, 2013 Rise Set
Actual Time 6:30 AM PDT 7:06 PM PDT
Civil Twilight 6:03 AM PDT 7:33 PM PDT
Nautical Twilight 5:31 AM PDT 8:05 PM PDT
Astronomical Twilight 4:59 AM PDT 8:38 PM PDT
Moon 11:16 PM PDT (3/30) 8:30 AM PDT (3/30)
Length of Visible Light 13h 29m
Length of Day
12h 35m
Waning Gibbous, 85% of the Moon is Illuminated
Mar 30
Waning Gibbous
Apr 2
Last Quarter
Apr 10
New
Apr 18
First Quarter
Apr 25
Full

Hourly Weather History & Observations

Time (PDT) Temp. Windchill Dew Point Humidity Pressure Visibility Wind Dir Wind Speed Gust Speed Precip Events Conditions
12:53 AM 39.0 °F 36.8 °F 28.0 °F 65% 30.09 in - SSW 3.5 mph - N/A   Unknown
1:53 AM 37.0 °F 31.0 °F 27.0 °F 67% 30.09 in - South 8.1 mph - N/A   Unknown
2:53 AM 39.0 °F 34.8 °F 28.0 °F 65% 30.09 in - South 5.8 mph - N/A   Unknown
3:53 AM 36.0 °F 33.3 °F 27.0 °F 70% 30.09 in - South 3.5 mph - N/A   Unknown
4:53 AM 36.0 °F 31.1 °F 27.0 °F 70% 30.10 in - South 5.8 mph - N/A   Unknown
5:53 AM 32.0 °F 28.7 °F 25.0 °F 75% 30.13 in - SSW 3.5 mph - N/A   Unknown
6:53 AM 33.1 °F 28.7 °F 25.0 °F 72% 30.15 in - South 4.6 mph - N/A   Unknown
7:53 AM 41.0 °F - 28.9 °F 62% 30.14 in - Calm Calm - N/A   Unknown
8:53 AM 51.1 °F - 28.9 °F 43% 30.13 in - Variable 3.5 mph - N/A   Unknown
9:53 AM 55.0 °F - 30.9 °F 40% 30.12 in - North 6.9 mph - N/A   Unknown
10:53 AM 59.0 °F - 30.0 °F 33% 30.09 in - North 8.1 mph - N/A   Unknown
11:53 AM 63.0 °F - 28.9 °F 28% 30.07 in - NE 6.9 mph - N/A   Unknown
12:53 PM 64.0 °F - 24.1 °F 22% 30.06 in - Calm Calm - N/A   Unknown
1:53 PM 64.9 °F - 21.9 °F 19% 30.04 in - SE 8.1 mph - N/A   Unknown
2:53 PM 68.0 °F - 19.9 °F 16% 30.00 in - NNW 4.6 mph - N/A   Unknown
3:53 PM 69.1 °F - 19.9 °F 15% 29.98 in - NNW 8.1 mph - N/A   Unknown
4:53 PM 68.0 °F - 21.0 °F 17% 29.97 in - Variable 5.8 mph - N/A   Unknown
5:53 PM 64.0 °F - 24.1 °F 22% 29.99 in - SE 10.4 mph - N/A   Unknown
6:53 PM 62.1 °F - 23.0 °F 22% 29.99 in - South 4.6 mph - N/A   Unknown
7:53 PM 57.9 °F - 25.0 °F 28% 29.99 in - SE 9.2 mph - N/A   Unknown
8:53 PM 55.0 °F - 26.1 °F 33% 29.98 in - SSW 4.6 mph - N/A   Unknown
9:53 PM 46.0 °F 43.9 °F 27.0 °F 47% 29.99 in - SE 4.6 mph - N/A   Unknown
10:53 PM 48.9 °F - 24.1 °F 38% 29.96 in - SSW 3.5 mph - N/A   Unknown
11:53 PM 44.1 °F - 25.0 °F 47% 29.95 in - Calm Calm - N/A   Unknown